| time (UTC) | temp C | wind direction | speed KPH | gust KPH | rain 1hr cm | rain 24hr cm | rain mn cm | humidity % | barometer mb |
| 20260905211254 | 19 | 46 | 6.4 | 17.7 | 0.00 | 0.00 | 0.00 | 75 | 1011.1 |
| 20260905210254 | 19 | 68 | 6.4 | 24.1 | 0.00 | 0.00 | 0.00 | 75 | 1011.0 |
| 20260905205252 | 19 | 80 | 4.8 | 22.5 | 0.00 | 0.00 | 0.00 | 75 | 1010.8 |
| 20260905204253 | 20 | 285 | 4.8 | 19.3 | 0.00 | 0.00 | 0.00 | 75 | 1010.8 |
| 20260905203253 | 20 | 117 | 4.8 | 17.7 | 0.00 | 0.00 | 0.00 | 75 | 1010.5 |
| 20260905202753 | 20 | 73 | 4.8 | 14.5 | 0.00 | 0.00 | 0.00 | 74 | 1010.5 |
| 20260905202408 | 20 | 81 | 3.2 | 12.9 | 0.00 | 0.00 | 0.00 | 74 | 1010.4 |
| 20260905200251 | 20 | 226 | 3.2 | 17.7 | 0.00 | 0.00 | 0.00 | 75 | 1010.4 |
| 20260905195250 | 20 | 4 | 1.6 | 11.3 | 0.00 | 0.00 | 0.00 | 75 | 1010.4 |
| 20260905194249 | 20 | 93 | 4.8 | 22.5 | 0.00 | 0.00 | 0.00 | 75 | 1010.3 |
| 20260905193251 | 20 | 74 | 3.2 | 11.3 | 0.00 | 0.00 | 0.00 | 75 | 1010.4 |
| 20260905192249 | 20 | 68 | 4.8 | 17.7 | 0.00 | 0.00 | 0.00 | 75 | 1010.5 |
| 20260905191249 | 21 | 265 | 4.8 | 17.7 | 0.00 | 0.00 | 0.00 | 75 | 1010.5 |
| 20260905190251 | 21 | 37 | 3.2 | 16.1 | 0.00 | 0.00 | 0.00 | 75 | 1010.5 |
| 20260905185248 | 21 | 179 | 4.8 | 17.7 | 0.00 | 0.00 | 0.00 | 75 | 1010.5 |
| 20260905184749 | 21 | 305 | 4.8 | 19.3 | 0.00 | 0.00 | 0.00 | 75 | 1010.4 |
| 20260905183247 | 21 | 105 | 3.2 | 9.7 | 0.00 | 0.00 | 0.00 | 75 | 1010.3 |
| 20260905182250 | 21 | 334 | 3.2 | 12.9 | 0.00 | 0.00 | 0.00 | 75 | 1010.5 |
| 20260905181248 | 21 | 95 | 3.2 | 12.9 | 0.00 | 0.00 | 0.00 | 75 | 1010.6 |
| 20260905180247 | 21 | 103 | 3.2 | 12.9 | 0.00 | 0.00 | 0.00 | 75 | 1010.6 |
| 20260905175746 | 21 | 269 | 3.2 | 11.3 | 0.00 | 0.00 | 0.00 | 75 | 1010.5 |
| 20260905174247 | 21 | 57 | 3.2 | 17.7 | 0.00 | 0.00 | 0.00 | 75 | 1010.2 |
| 20260905173244 | 21 | 43 | 3.2 | 16.1 | 0.00 | 0.00 | 0.00 | 75 | 1010.0 |
| 20260905172244 | 20 | 61 | 3.2 | 11.3 | 0.00 | 0.00 | 0.00 | 75 | 1010.0 |
| 20260905171245 | 20 | 43 | 3.2 | 12.9 | 0.00 | 0.00 | 0.00 | 75 | 1010.1 |
| 20260905170245 | 20 | 114 | 3.2 | 12.9 | 0.00 | 0.00 | 0.00 | 75 | 1010.1 |
| 20260905165241 | 20 | 72 | 3.2 | 17.7 | 0.00 | 0.00 | 0.00 | 75 | 1010.1 |
| 20260905164239 | 21 | 225 | 0.0 | 11.3 | 0.00 | 0.00 | 0.00 | 75 | 1010.1 |
| 20260905163241 | 21 | 155 | 3.2 | 12.9 | 0.00 | 0.00 | 0.00 | 75 | 1010.0 |
| 20260905162237 | 21 | 234 | 4.8 | 22.5 | 0.00 | 0.00 | 0.00 | 75 | 1009.9 |
| 20260905161237 | 21 | 78 | 4.8 | 19.3 | 0.00 | 0.00 | 0.00 | 75 | 1009.8 |
| 20260905160238 | 21 | 134 | 4.8 | 19.3 | 0.00 | 0.00 | 0.00 | 74 | 1009.8 |
| 20260905155236 | 22 | 65 | 4.8 | 24.1 | 0.00 | 0.00 | 0.00 | 74 | 1009.7 |
| 20260905154237 | 21 | 96 | 4.8 | 19.3 | 0.00 | 0.00 | 0.00 | 74 | 1009.6 |
| 20260905153239 | 22 | 69 | 3.2 | 19.3 | 0.00 | 0.00 | 0.00 | 73 | 1009.5 |
| 20260905152237 | 22 | 67 | 3.2 | 20.9 | 0.00 | 0.00 | 0.00 | 72 | 1009.4 |
| 20260905151238 | 22 | 59 | 3.2 | 12.9 | 0.00 | 0.00 | 0.00 | 72 | 1009.5 |
| 20260905150237 | 22 | 82 | 3.2 | 12.9 | 0.00 | 0.00 | 0.00 | 73 | 1009.3 |
| 20260905145237 | 22 | 86 | 3.2 | 14.5 | 0.00 | 0.00 | 0.00 | 73 | 1009.4 |
| 20260905144237 | 22 | 111 | 3.2 | 17.7 | 0.00 | 0.00 | 0.00 | 72 | 1009.6 |
| 20260905143238 | 22 | 84 | 4.8 | 20.9 | 0.00 | 0.00 | 0.00 | 72 | 1009.4 |
| 20260905142737 | 22 | 76 | 4.8 | 11.3 | 0.00 | 0.00 | 0.00 | 72 | 1009.4 |
| 20260905141236 | 22 | 77 | 3.2 | 14.5 | 0.00 | 0.00 | 0.00 | 72 | 1009.4 |
| 20260905140236 | 22 | 307 | 3.2 | 12.9 | 0.00 | 0.00 | 0.00 | 73 | 1009.4 |
| 20260905135236 | 22 | 288 | 1.6 | 9.7 | 0.00 | 0.00 | 0.00 | 74 | 1009.5 |
| 20260905134238 | 22 | 16 | 1.6 | 9.7 | 0.00 | 0.00 | 0.00 | 74 | 1009.5 |
| 20260905133236 | 21 | 87 | 1.6 | 8.0 | 0.00 | 0.00 | 0.00 | 75 | 1009.4 |
| 20260905132238 | 21 | 100 | 1.6 | 9.7 | 0.00 | 0.00 | 0.00 | 75 | 1009.3 |
| 20260905131240 | 21 | 102 | 1.6 | 8.0 | 0.00 | 0.00 | 0.00 | 75 | 1009.2 |
| 20260905130236 | 20 | 91 | 1.6 | 9.7 | 0.00 | 0.00 | 0.00 | 74 | 1009.2 |
| 20260905125238 | 20 | 96 | 1.6 | 6.4 | 0.00 | 0.00 | 0.00 | 74 | 1009.2 |
| 20260905124236 | 20 | 87 | 1.6 | 9.7 | 0.00 | 0.00 | 0.00 | 74 | 1009.0 |
| 20260905123236 | 19 | 142 | 0.0 | 8.0 | 0.00 | 0.00 | 0.00 | 73 | 1008.9 |
| 20260905122236 | 18 | 97 | 0.0 | 4.8 | 0.00 | 0.00 | 0.00 | 73 | 1008.8 |
| 20260905121237 | 18 | 264 | 0.0 | 6.4 | 0.00 | 0.00 | 0.00 | 72 | 1008.8 |
| 20260905120238 | 18 | 296 | 0.0 | 4.8 | 0.00 | 0.00 | 0.00 | 71 | 1008.8 |
| 20260905115737 | 18 | 248 | 0.0 | 3.2 | 0.00 | 0.00 | 0.00 | 71 | 1008.9 |
| 20260905114238 | 17 | 264 | 0.0 | 1.6 | 0.00 | 0.00 | 0.00 | 69 | 1008.9 |
| 20260905113236 | 17 | 264 | 0.0 | 0.0 | 0.00 | 0.00 | 0.00 | 69 | 1008.8 |
| 20260905112238 | 17 | 264 | 0.0 | 1.6 | 0.00 | 0.00 | 0.00 | 68 | 1008.8 |
| 20260905111238 | 16 | 264 | 0.0 | 0.0 | 0.00 | 0.00 | 0.00 | 67 | 1008.7 |
| 20260905110236 | 16 | 264 | 0.0 | 0.0 | 0.00 | 0.00 | 0.00 | 68 | 1008.7 |
| 20260905105236 | 16 | 266 | 0.0 | 0.0 | 0.00 | 0.00 | 0.00 | 68 | 1008.7 |
| 20260905104237 | 16 | 264 | 0.0 | 1.6 | 0.00 | 0.00 | 0.00 | 68 | 1008.5 |
| 20260905103236 | 16 | 266 | 0.0 | 1.6 | 0.00 | 0.00 | 0.00 | 68 | 1008.4 |
| 20260905102236 | 16 | 266 | 0.0 | 1.6 | 0.00 | 0.00 | 0.00 | 69 | 1008.3 |
| 20260905101237 | 16 | 266 | 0.0 | 1.6 | 0.00 | 0.00 | 0.00 | 69 | 1008.2 |
| 20260905100741 | 16 | 298 | 0.0 | 0.0 | 0.00 | 0.00 | 0.00 | 69 | 1008.1 |
| 20260905095242 | 16 | 238 | 0.0 | 1.6 | 0.00 | 0.00 | 0.00 | 68 | 1008.1 |
| 20260905095236 | 16 | 298 | 0.0 | 3.2 | 0.00 | 0.00 | 0.00 | 68 | 1008.3 |
| 20260905093236 | 16 | 238 | 0.0 | 0.0 | 0.00 | 0.00 | 0.00 | 68 | 1008.1 |
| 20260905092237 | 16 | 238 | 0.0 | 0.0 | 0.00 | 0.00 | 0.00 | 67 | 1008.0 |
| 20260905091236 | 16 | 238 | 0.0 | 0.0 | 0.00 | 0.00 | 0.00 | 67 | 1008.0 |
| 20260905090737 | 16 | 238 | 0.0 | 1.6 | 0.00 | 0.00 | 0.00 | 66 | 1008.1 |
| 20260905085236 | 16 | 238 | 0.0 | 0.0 | 0.00 | 0.00 | 0.00 | 66 | 1008.1 |
| 20260905084237 | 16 | 238 | 0.0 | 0.0 | 0.00 | 0.00 | 0.00 | 66 | 1008.2 |
| 20260905083737 | 16 | 238 | 0.0 | 0.0 | 0.00 | 0.00 | 0.00 | 67 | 1008.3 |
| 20260905082237 | 16 | 238 | 0.0 | 0.0 | 0.00 | 0.00 | 0.00 | 67 | 1008.2 |
| 20260905081238 | 16 | 238 | 0.0 | 0.0 | 0.00 | 0.00 | 0.00 | 67 | 1008.2 |
| 20260905080239 | 16 | 238 | 0.0 | 0.0 | 0.00 | 0.00 | 0.00 | 68 | 1008.1 |
| 20260905075242 | 16 | 238 | 0.0 | 0.0 | 0.00 | 0.00 | 0.00 | 68 | 1008.1 |
| 20260905075236 | 16 | 238 | 0.0 | 0.0 | 0.00 | 0.00 | 0.00 | 68 | 1008.1 |
| 20260905073238 | 17 | 238 | 0.0 | 0.0 | 0.00 | 0.00 | 0.00 | 69 | 1008.2 |
| 20260905072237 | 17 | 238 | 0.0 | 0.0 | 0.00 | 0.00 | 0.00 | 70 | 1008.2 |
| 20260905071236 | 17 | 238 | 0.0 | 0.0 | 0.00 | 0.00 | 0.00 | 70 | 1008.3 |
| 20260905070237 | 17 | 238 | 0.0 | 1.6 | 0.00 | 0.00 | 0.00 | 70 | 1008.5 |
| 20260905064739 | 17 | 238 | 0.0 | 1.6 | 0.00 | 0.00 | 0.00 | 69 | 1008.7 |
| 20260905063737 | 17 | 238 | 0.0 | 3.2 | 0.00 | 0.00 | 0.00 | 69 | 1008.7 |
| 20260905062249 | 17 | 101 | 0.0 | 1.6 | 0.00 | 0.00 | 0.00 | 67 | 1008.7 |
| 20260905061237 | 17 | 99 | 0.0 | 0.0 | 0.00 | 0.00 | 0.00 | 66 | 1008.8 |
| 20260905060239 | 17 | 98 | 0.0 | 1.6 | 0.00 | 0.00 | 0.00 | 65 | 1008.8 |
| 20260905055242 | 17 | 101 | 0.0 | 0.0 | 0.00 | 0.00 | 0.00 | 63 | 1008.7 |
| 20260905055237 | 17 | 100 | 0.0 | 0.0 | 0.00 | 0.00 | 0.00 | 64 | 1008.7 |
| 20260905053236 | 17 | 101 | 0.0 | 0.0 | 0.00 | 0.00 | 0.00 | 62 | 1008.8 |
| 20260905052738 | 17 | 101 | 0.0 | 1.6 | 0.00 | 0.00 | 0.00 | 61 | 1008.7 |
| 20260905051237 | 17 | 101 | 0.0 | 1.6 | 0.00 | 0.00 | 0.00 | 60 | 1008.7 |
| 20260905050237 | 17 | 101 | 0.0 | 0.0 | 0.00 | 0.00 | 0.00 | 60 | 1008.8 |
| 20260905045236 | 17 | 100 | 0.0 | 0.0 | 0.00 | 0.00 | 0.00 | 60 | 1008.9 |
| 20260905044237 | 17 | 101 | 0.0 | 0.0 | 0.00 | 0.00 | 0.00 | 59 | 1008.9 |
| 20260905043741 | 17 | 101 | 0.0 | 0.0 | 0.00 | 0.00 | 0.00 | 59 | 1008.8 |
| 20260905042233 | 17 | 101 | 0.0 | 0.0 | 0.00 | 0.00 | 0.00 | 59 | 1008.9 |
| 20260905041233 | 17 | 100 | 0.0 | 0.0 | 0.00 | 0.00 | 0.00 | 59 | 1008.9 |
| 20260905040231 | 18 | 101 | 0.0 | 0.0 | 0.00 | 0.00 | 0.00 | 59 | 1008.8 |
| 20260905035734 | 18 | 101 | 0.0 | 0.0 | 0.00 | 0.00 | 0.00 | 60 | 1008.8 |
| 20260905034232 | 18 | 101 | 0.0 | 0.0 | 0.00 | 0.00 | 0.00 | 60 | 1008.8 |
| 20260905033232 | 18 | 101 | 0.0 | 0.0 | 0.00 | 0.00 | 0.00 | 60 | 1008.8 |
| 20260905032232 | 18 | 101 | 0.0 | 0.0 | 0.00 | 0.00 | 0.00 | 61 | 1008.7 |
| 20260905031233 | 18 | 101 | 0.0 | 0.0 | 0.00 | 0.00 | 0.00 | 62 | 1008.7 |
| 20260905030232 | 18 | 101 | 0.0 | 0.0 | 0.00 | 0.00 | 0.00 | 62 | 1008.9 |
| 20260905025235 | 18 | 101 | 0.0 | 1.6 | 0.00 | 0.00 | 0.00 | 62 | 1008.7 |
| 20260905024231 | 19 | 113 | 0.0 | 1.6 | 0.00 | 0.00 | 0.00 | 62 | 1008.7 |
| 20260905023233 | 19 | 68 | 0.0 | 0.0 | 0.00 | 0.00 | 0.00 | 63 | 1008.7 |
| 20260905022746 | 19 | 73 | 0.0 | 0.0 | 0.00 | 0.00 | 0.00 | 64 | 1008.7 |
| 20260905021232 | 19 | 73 | 0.0 | 0.0 | 0.00 | 0.00 | 0.00 | 65 | 1008.9 |
| 20260905020734 | 19 | 74 | 0.0 | 0.0 | 0.00 | 0.00 | 0.00 | 65 | 1008.9 |
| 20260905015230 | 20 | 74 | 0.0 | 0.0 | 0.00 | 0.00 | 0.00 | 66 | 1009.0 |
| 20260905014735 | 20 | 74 | 0.0 | 0.0 | 0.00 | 0.00 | 0.00 | 66 | 1009.2 |
| 20260905013232 | 20 | 73 | 0.0 | 0.0 | 0.00 | 0.00 | 0.00 | 68 | 1009.1 |
| 20260905012231 | 20 | 74 | 0.0 | 0.0 | 0.00 | 0.00 | 0.00 | 69 | 1009.3 |
| 20260905011232 | 20 | 74 | 0.0 | 0.0 | 0.00 | 0.00 | 0.00 | 70 | 1009.3 |
| 20260905010232 | 21 | 73 | 0.0 | 0.0 | 0.00 | 0.00 | 0.00 | 72 | 1009.3 |
| 20260905005231 | 21 | 73 | 0.0 | 0.0 | 0.00 | 0.00 | 0.00 | 73 | 1009.3 |
| 20260905004231 | 21 | 73 | 0.0 | 0.0 | 0.00 | 0.00 | 0.00 | 73 | 1009.3 |
| 20260905003230 | 21 | 73 | 0.0 | 0.0 | 0.00 | 0.00 | 0.00 | 74 | 1009.2 |
| 20260905002244 | 21 | 74 | 0.0 | 0.0 | 0.00 | 0.00 | 0.00 | 75 | 1009.1 |
| 20260905001733 | 21 | 75 | 0.0 | 0.0 | 0.00 | 0.00 | 0.00 | 75 | 1008.9 |
| 20260905000233 | 22 | 75 | 0.0 | 0.0 | 0.00 | 0.00 | 0.00 | 75 | 1008.9 |
| 20260904235245 | 22 | 75 | 0.0 | 1.6 | 0.00 | 0.00 | 0.00 | 76 | 1008.8 |
| 20260904233233 | 22 | 65 | 0.0 | 3.2 | 0.00 | 0.00 | 0.00 | 75 | 1008.7 |
| 20260904232239 | 23 | 6 | 0.0 | 0.0 | 0.00 | 0.00 | 0.00 | 73 | 1008.4 |
| 20260904232234 | 23 | 78 | 0.0 | 3.2 | 0.00 | 0.00 | 0.00 | 74 | 1008.6 |
| 20260904230231 | 23 | 6 | 0.0 | 1.6 | 0.00 | 0.00 | 0.00 | 74 | 1008.4 |
| 20260904225232 | 24 | 46 | 0.0 | 1.6 | 0.00 | 0.00 | 0.00 | 74 | 1008.4 |
| 20260904224231 | 24 | 88 | 0.0 | 0.0 | 0.00 | 0.00 | 0.00 | 75 | 1008.5 |
| 20260904223232 | 25 | 88 | 0.0 | 0.0 | 0.00 | 0.00 | 0.00 | 75 | 1008.3 |
| 20260904222232 | 25 | 88 | 0.0 | 0.0 | 0.00 | 0.00 | 0.00 | 75 | 1008.2 |
| 20260904221231 | 25 | 88 | 0.0 | 0.0 | 0.00 | 0.00 | 0.00 | 75 | 1008.1 |
| 20260904220233 | 25 | 88 | 0.0 | 0.0 | 0.00 | 0.00 | 0.00 | 75 | 1008.2 |
| 20260904215230 | 25 | 88 | 0.0 | 0.0 | 0.00 | 0.00 | 0.00 | 75 | 1008.1 |
| 20260904214231 | 26 | 87 | 0.0 | 0.0 | 0.00 | 0.00 | 0.00 | 74 | 1008.1 |
| 20260904213231 | 26 | 87 | 0.0 | 1.6 | 0.00 | 0.00 | 0.00 | 74 | 1008.0 |
| 20260904212230 | 26 | 80 | 0.0 | 1.6 | 0.00 | 0.00 | 0.00 | 73 | 1008.0 |